Location: Bonnesvalyn
(49.1218°N, 3.3177°E)
Time: 23:58:57
(UTC+00:00)

Cosmos 44 Rocket - Pass Details

Date: 09 February 2023
Orbit: 646 x 741 km, 65.1° (Epoch: 21 March)

Event Time Altitude Azimuth Distance (km) Brightness Sun altitude
Rises 18:49:21 0° 240° (WSW) 2,969 7.6 -18.8°
Reaches altitude 10° 18:51:44 10° 248° (WSW) 2,070 6.8 -19.2°
Maximum altitude 18:56:10 41° 319° (NW) 977 4.3 -20.0°
Enters shadow 18:59:39 16° 24° (NNE) 1,748 5.1 -20.5°
